[[{"header":{"parameterUnit":"m.s-1","parameterCategory":1,"la1":30.2991,"la2":30.254,"lo1":-89.0895,"lo2":-89.0444,"dy":0.0017,"dx":0.0017,"nx":28,"ny":28,"refTime":"2025-08-27T03:00:00:Z","depth":0,"parameterNumber":2,"parameterNumberName":"U-component_of_WINDS"},"data":[0,0,0,0,0,0,0,0,0,0,0,0,0,0,0,0,0,0,0,0,0,0,0,0,0,0,0,0,0,0,0,0,0,0,0,0,0,0,0,0,0,0,0,0,0,0,0,0,0,0,0,0,0,0,0,0,0,0,-0.7341,-0.734,0,-0.7278,-0.7277,-0.7277,-0.7212,-0.7211,-0.721,-0.721,-0.7146,-0.7145,-0.7144,0,0,0,0,0,0,0,0,0,0,0,0,0,-0.7406,-0.7405,-0.7341,-0.734,-0.7339,-0.7278,-0.7277,-0.7276,-0.7212,-0.7211,-0.721,-0.7209,-0.7146,-0.7145,-0.7144,0,0,0,0,0,0,0,0,0,0,0,0,0,-0.7364,-0.7405,-0.7341,-0.73,-0.7295,-0.7278,-0.7277,-0.7276,-0.7213,-0.7211,-0.721,-0.7209,-0.7146,-0.7145,-0.7144,-0.7162,0,0,-0.714,-0.7139,0,0,0,0,0,0,0,0,-0.7366,-0.7362,-0.7306,-0.7302,-0.7298,-0.7251,-0.7277,-0.7238,-0.7213,-0.7244,-0.721,-0.7208,-0.7182,-0.7178,-0.7169,-0.7159,-0.7157,-0.714,-0.7139,-0.7138,-0.7138,0,0,0,0,0,0,0,-0.7369,-0.7364,-0.7316,-0.7306,-0.73,-0.7285,-0.7277,-0.7269,-0.7221,-0.7241,-0.7236,-0.723,-0.7179,-0.717,-0.7167,-0.7156,-0.714,-0.7139,-0.7138,-0.7137,-0.716,-0.7161,0,0,0,0,0,0,-0.7378,-0.7367,-0.7318,-0.7314,-0.7329,-0.7285,-0.7276,-0.7268,-0.7221,-0.7213,-0.7231,-0.7227,-0.7173,-0.7169,-0.7165,-0.7183,-0.7138,-0.7137,-0.7136,-0.7158,-0.716,-0.7161,0,0,0,0,0,0,-0.738,-0.7375,-0.732,-0.7339,-0.7331,-0.7285,-0.7276,-0.7267,-0.7258,-0.7213,-0.7205,-0.723,-0.7172,-0.7166,-0.7164,-0.718,-0.7137,-0.7135,-0.7157,-0.7159,-0.7161,-0.7221,0,0,0,0,0,0,-0.7382,-0.7376,-0.7382,-0.734,-0.733,-0.732,-0.7277,-0.7267,-0.7256,-0.725,-0.7211,-0.7203,-0.7171,-0.7166,-0.7162,-0.7178,-0.7134,-0.7155,-0.7157,-0.716,-0.7218,-0.7225,-0.7232,0,0,0,0,0,-0.7385,-0.7401,-0.7382,-0.7377,-0.7337,-0.7321,-0.7316,-0.7278,-0.7257,-0.7263,-0.7235,-0.7204,-0.718,-0.7166,-0.7162,-0.7177,-0.7154,-0.7157,-0.716,-0.7214,-0.7224,-0.7231,0,0,0,0,0,0,-0.7446,-0.7395,-0.7373,-0.7376,-0.7354,-0.731,-0.7316,-0.7289,-0.7272,-0.7267,-0.7221,-0.7213,-0.7216,-0.7196,-0.7182,-0.7193,-0.7162,-0.7165,-0.7205,-0.7214,-0.7221,-0.7225,-0.7133,0,0,0,0,0,-0.746,-0.7451,-0.7407,-0.7414,-0.7404,-0.7363,-0.7354,-0.7328,-0.7302,-0.7292,-0.7263,-0.724,-0.7227,-0.722,-0.7205,-0.7215,-0.7206,-0.7223,-0.7231,-0.7237,-0.7239,-0.7243,-0.7251,-0.7171,-0.7171,-0.7171,0,0,-0.7488,-0.7459,-0.7456,-0.7426,-0.7405,-0.7397,-0.7355,-0.7348,-0.7342,-0.7291,-0.7286,-0.7265,-0.7237,-0.7241,-0.7241,-0.7224,-0.7259,-0.724,-0.7246,-0.7244,-0.7247,-0.7255,-0.7262,-0.7174,-0.7173,-0.7173,0,0,-0.7535,-0.7513,-0.7516,-0.7497,-0.7466,-0.7439,-0.744,-0.7401,-0.7385,-0.738,-0.7342,-0.7335,-0.7313,-0.7295,-0.7282,-0.7326,-0.7297,-0.7323,-0.7359,-0.7364,-0.737,-0.7375,-0.7391,-0.7397,-0.7325,-0.7325,-0.7325,0,-0.7574,-0.7561,-0.7522,-0.7518,-0.7506,-0.746,-0.7464,-0.7447,-0.7413,-0.7406,-0.7389,-0.7362,-0.7339,-0.7338,-0.7349,-0.7341,-0.7341,-0.7326,-0.7372,-0.7377,-0.7382,-0.7396,-0.7402,-0.7329,-0.7328,-0.7328,-0.7328,0,-0.7611,-0.7602,-0.7609,-0.7578,-0.7567,-0.7567,-0.7528,-0.7522,-0.7497,-0.7472,-0.7469,-0.7441,-0.742,-0.7418,-0.7393,-0.7415,-0.7405,-0.7381,-0.7349,-0.7393,-0.7406,-0.7411,-0.7333,-0.7332,-0.7331,-0.733,0,0,-0.7692,-0.7641,-0.7644,-0.763,-0.7594,-0.7587,-0.7586,-0.7566,-0.7562,-0.7541,-0.7539,-0.7523,-0.7501,-0.7487,-0.746,-0.7465,-0.7502,-0.744,-0.7438,-0.7452,-0.7524,-0.7542,-0.7549,-0.7483,-0.7484,-0.7485,-0.7526,0,-0.7733,-0.7728,-0.7693,-0.7698,-0.769,-0.7648,-0.7647,-0.7625,-0.7603,-0.7593,-0.7568,-0.7558,-0.7529,-0.752,-0.7523,-0.7497,-0.7515,-0.7493,-0.7481,-0.7481,-0.7488,-0.7555,-0.7574,-0.7614,-0.7531,-0.7532,-0.7532,0,-0.7779,-0.7762,-0.7766,-0.7731,-0.7727,-0.7727,-0.7706,-0.7698,-0.7673,-0.7656,-0.7643,-0.7613,-0.761,-0.7581,-0.7577,-0.7563,-0.7556,-0.7543,-0.7544,-0.754,-0.7508,-0.7553,-0.7626,-0.7632,-0.754,-0.7539,-0.7538,0,-0.7839,-0.7816,-0.7816,-0.7805,-0.7765,-0.7766,-0.7749,-0.7723,-0.7714,-0.7697,-0.7691,-0.7674,-0.7664,-0.7652,-0.7619,-0.7601,-0.7619,-0.7587,-0.7605,-0.7606,-0.761,-0.761,-0.7682,-0.7607,-0.7607,-0.7607,-0.7607,0,-0.7887,-0.7891,-0.7842,-0.7842,-0.7846,-0.7807,-0.7812,-0.7791,-0.7769,-0.7764,-0.7727,-0.7724,-0.7681,-0.7673,-0.7648,-0.7649,-0.7645,-0.7631,-0.7624,-0.7634,-0.7636,-0.7628,-0.7624,-0.7608,-0.7608,-0.7608,-0.7608,0,-0.7953,-0.792,-0.7917,-0.788,-0.7871,-0.7875,-0.7843,-0.7842,-0.7818,-0.7813,-0.781,-0.7772,-0.7761,-0.7728,-0.7708,-0.7691,-0.77,-0.7687,-0.7708,-0.7703,-0.7723,-0.7721,-0.7792,-0.78,-0.7721,-0.7722,-0.7722,0,-0.7986,-0.7988,-0.7951,-0.7946,-0.7931,-0.7922,-0.7913,-0.7876,-0.7868,-0.7841,-0.7843,-0.7829,-0.7816,-0.7801,-0.7772,-0.7758,-0.7744,-0.777,-0.7741,-0.7751,-0.7744,-0.7744,-0.7744,-0.7776,-0.7777,-0.7777,-0.7778,0,-0.8047,-0.8031,-0.8019,-0.8002,-0.7992,-0.7977,-0.796,-0.7958,-0.7916,-0.7909,-0.7898,-0.7888,-0.7869,-0.7856,-0.7837,-0.782,-0.7793,-0.7788,-0.7791,-0.78,-0.7813,-0.7806,-0.7724,-0.7786,-0.7785,-0.7784,-0.7784,-0.7784,-0.8097,-0.8097,-0.8072,-0.806,-0.8044,-0.8029,-0.8026,-0.8002,-0.7992,-0.7973,-0.7952,-0.7944,-0.792,-0.7892,-0.7878,-0.7871,-0.7856,-0.7861,-0.7862,-0.7864,-0.7869,-0.7815,-0.7868,-0.7868,-0.7867,-0.7867,-0.7867,0,-0.8156,-0.8138,-0.8128,-0.8105,-0.8097,-0.8072,-0.8052,-0.8046,-0.8039,-0.802,-0.8008,-0.7996,-0.7984,-0.7955,-0.794,-0.794,-0.7928,-0.7938,-0.7937,-0.7934,-0.7883,-0.7881,-0.7949,-0.7949,-0.7949,-0.7949,-0.7949,-0.7949,-0.8186,-0.8185,-0.8167,-0.8159,-0.8141,-0.8132,-0.8122,-0.8109,-0.8093,-0.8081,-0.8071,-0.8053,-0.803,-0.8014,-0.8002,-0.7994,-0.799,-0.8004,-0.7992,-0.7945,-0.7937,-0.793,-0.7928,-0.8004,-0.8004,-0.8044,-0.8044,-0.8044]},{"header":{"parameterUnit":"m.s-1","parameterCategory":1,"la1":30.2991,"la2":30.254,"lo1":-89.0895,"lo2":-89.0444,"dy":0.0017,"dx":0.0017,"nx":28,"ny":28,"refTime":"2025-08-27T03:00:00:Z","depth":0,"parameterNumber":3,"parameterNumberName":"V-component_of_WINDS"},"data":[0,0,0,0,0,0,0,0,0,0,0,0,0,0,0,0,0,0,0,0,0,0,0,0,0,0,0,0,0,0,0,0,0,0,0,0,0,0,0,0,0,0,0,0,0,0,0,0,0,0,0,0,0,0,0,0,0,0,1.8402,1.8402,0,1.8439,1.844,1.844,1.8497,1.8498,1.8499,1.85,1.8536,1.8536,1.8536,0,0,0,0,0,0,0,0,0,0,0,0,0,1.8378,1.8379,1.8402,1.8402,1.8403,1.8439,1.844,1.844,1.8497,1.8498,1.85,1.8501,1.8536,1.8536,1.8536,0,0,0,0,0,0,0,0,0,0,0,0,0,1.8399,1.8379,1.8402,1.8436,1.8439,1.8439,1.844,1.844,1.8497,1.8498,1.85,1.8501,1.8536,1.8536,1.8536,1.8506,0,0,1.8536,1.8536,0,0,0,0,0,0,0,0,1.8398,1.84,1.843,1.8433,1.8437,1.8465,1.8445,1.8462,1.8496,1.8475,1.85,1.8502,1.8511,1.8513,1.8517,1.8507,1.8509,1.8536,1.8536,1.8536,1.8536,0,0,0,0,0,0,0,1.8397,1.8399,1.8417,1.8431,1.8435,1.8448,1.8453,1.8448,1.8484,1.8477,1.8481,1.8485,1.8513,1.8517,1.8518,1.8509,1.8536,1.8536,1.8536,1.8536,1.8476,1.8475,0,0,0,0,0,0,1.839,1.8397,1.8415,1.8418,1.8421,1.8448,1.8453,1.8455,1.8484,1.849,1.8483,1.8487,1.8516,1.8518,1.852,1.8485,1.8536,1.8536,1.8536,1.8478,1.8476,1.8474,0,0,0,0,0,0,1.839,1.8391,1.8414,1.8409,1.8413,1.8446,1.8448,1.8455,1.8458,1.8489,1.8496,1.848,1.8517,1.852,1.8509,1.8487,1.8536,1.8536,1.848,1.8477,1.8475,1.8417,0,0,0,0,0,0,1.8389,1.8391,1.838,1.8408,1.8413,1.8403,1.8447,1.8454,1.8458,1.8464,1.8488,1.8494,1.8519,1.8509,1.8509,1.8488,1.8536,1.8482,1.8479,1.8476,1.8421,1.8412,1.8406,0,0,0,0,0,1.8388,1.8361,1.8379,1.8381,1.84,1.8401,1.8404,1.8434,1.8456,1.8445,1.8465,1.8493,1.849,1.8507,1.8508,1.8487,1.8483,1.848,1.8476,1.8424,1.8414,1.8406,0,0,0,0,0,0,1.8329,1.8366,1.8385,1.8368,1.8381,1.8411,1.8398,1.8423,1.8429,1.8434,1.8471,1.8476,1.846,1.8473,1.8491,1.8459,1.8491,1.8487,1.8451,1.8442,1.8434,1.8431,1.8536,0,0,0,0,0,1.8314,1.8313,1.8345,1.8326,1.8332,1.8363,1.8365,1.8388,1.8402,1.8408,1.8428,1.844,1.8443,1.8443,1.8447,1.8423,1.8429,1.8409,1.8402,1.8396,1.8392,1.838,1.8371,1.8463,1.8463,1.8463,0,0,1.8282,1.8303,1.8299,1.8315,1.8327,1.8325,1.8368,1.8363,1.8361,1.8407,1.8398,1.8413,1.843,1.8412,1.8406,1.8422,1.8368,1.8391,1.8386,1.8385,1.8375,1.8366,1.8359,1.846,1.8461,1.8461,0,0,1.8224,1.824,1.8225,1.8238,1.8257,1.8279,1.8275,1.8302,1.8313,1.8305,1.834,1.8338,1.8341,1.8352,1.8357,1.8304,1.8329,1.8304,1.8264,1.8252,1.8245,1.8239,1.8219,1.8212,1.83,1.83,1.83,0,1.8182,1.8181,1.8215,1.8208,1.8213,1.8256,1.8242,1.8252,1.8271,1.8274,1.8293,1.8298,1.8312,1.8297,1.8284,1.8288,1.8285,1.8301,1.8244,1.8238,1.8232,1.8214,1.8206,1.8297,1.8297,1.8298,1.8298,0,1.8128,1.8126,1.8112,1.8131,1.8135,1.8124,1.8156,1.8156,1.8178,1.8198,1.8189,1.8208,1.8216,1.8215,1.8236,1.8203,1.8213,1.8237,1.827,1.822,1.8203,1.8196,1.8292,1.8293,1.8294,1.8295,0,0,1.8032,1.807,1.8065,1.8073,1.8099,1.8097,1.8089,1.8098,1.8097,1.8109,1.8102,1.8104,1.8127,1.8134,1.8157,1.8146,1.8102,1.8172,1.8173,1.8157,1.8066,1.8047,1.8038,1.812,1.8118,1.8117,1.8065,0,1.7978,1.7966,1.7997,1.7977,1.7975,1.8016,1.8009,1.8023,1.8041,1.8042,1.8062,1.8062,1.8093,1.8097,1.8089,1.8109,1.8084,1.8113,1.8113,1.8112,1.8106,1.803,1.8009,1.7958,1.8058,1.8057,1.8056,0,1.7913,1.7922,1.7902,1.7929,1.7929,1.7922,1.7933,1.7933,1.795,1.7964,1.7972,1.7999,1.7992,1.8025,1.8015,1.8035,1.8036,1.8046,1.8045,1.8045,1.808,1.8027,1.7943,1.7935,1.8047,1.8047,1.8048,0,1.7844,1.7852,1.7841,1.7847,1.7878,1.7872,1.7884,1.7903,1.7906,1.7916,1.7918,1.7926,1.7931,1.7936,1.7965,1.7986,1.7952,1.7986,1.7962,1.7961,1.7952,1.7952,1.7866,1.7955,1.7955,1.7955,1.7955,0,1.7779,1.7765,1.781,1.7803,1.7788,1.7824,1.7809,1.7825,1.7842,1.7838,1.7874,1.787,1.7909,1.7909,1.7931,1.792,1.7922,1.7932,1.7938,1.7928,1.7927,1.7929,1.7933,1.7953,1.7953,1.7954,1.7954,0,1.7699,1.7729,1.7719,1.775,1.7757,1.7745,1.7771,1.7765,1.7786,1.7782,1.7782,1.7815,1.7817,1.7847,1.7855,1.787,1.7849,1.7862,1.7843,1.7847,1.7821,1.7822,1.7733,1.7722,1.7818,1.7817,1.7816,0,1.7655,1.7646,1.7675,1.7676,1.7687,1.7688,1.7692,1.7727,1.7729,1.7748,1.774,1.7746,1.7752,1.7753,1.7777,1.7783,1.7796,1.7764,1.7797,1.7788,1.7795,1.7795,1.7794,1.7757,1.7756,1.7755,1.7754,0,1.7574,1.759,1.7595,1.7604,1.7608,1.7618,1.7629,1.7627,1.7666,1.7667,1.767,1.7675,1.7684,1.7688,1.7699,1.7712,1.7738,1.7744,1.7738,1.7727,1.7717,1.7721,1.7823,1.7745,1.7746,1.7747,1.7747,1.7747,1.7511,1.7504,1.7524,1.7528,1.754,1.755,1.7547,1.7568,1.7571,1.7581,1.7602,1.7602,1.762,1.7637,1.7647,1.7647,1.7664,1.7656,1.7654,1.7651,1.7646,1.7718,1.765,1.765,1.765,1.765,1.7651,0,1.7431,1.7446,1.745,1.7465,1.7468,1.7495,1.7509,1.7509,1.7509,1.7524,1.7529,1.7532,1.7537,1.7562,1.7569,1.7564,1.7577,1.7565,1.7565,1.7568,1.7631,1.7635,1.7555,1.7555,1.7555,1.7555,1.7555,1.7555,1.739,1.738,1.7397,1.7394,1.7409,1.7409,1.7415,1.7425,1.7437,1.7439,1.7443,1.746,1.7478,1.7488,1.7493,1.75,1.7501,1.7484,1.7495,1.7554,1.7563,1.7572,1.7575,1.7484,1.7484,1.7432,1.7432,1.7431]}]]